Time,TemperatureF,DewpointF,PressureIn,WindDirection,WindDirectionDegrees,WindSpeedMPH,WindSpeedGustMPH,Humidity,HourlyPrecipIn,Conditions,Clouds,dailyrainin,SoftwareType,DateUTC
2013-09-10 00:10:00,81.4,56.8,29.73,South,177,11.0,11.0,43,0.00,,,0.00,Wunderground v.1.15,2013-09-10 05:10:00,
2013-09-10 00:20:00,81.4,56.8,29.74,SSE,153,10.0,10.0,43,0.00,,,0.00,Wunderground v.1.15,2013-09-10 05:20:00,
2013-09-10 00:30:00,81.1,56.5,29.74,SSW,201,9.0,9.0,43,0.00,,,0.00,Wunderground v.1.15,2013-09-10 05:30:00,
2013-09-10 00:40:00,81.0,56.4,29.74,South,191,10.0,10.0,43,0.00,,,0.00,Wunderground v.1.15,2013-09-10 05:40:00,
2013-09-10 00:50:00,80.7,56.8,29.74,South,191,9.0,9.0,44,0.00,,,0.00,Wunderground v.1.15,2013-09-10 05:50:00,
2013-09-10 01:00:00,80.4,56.5,29.74,SSE,165,8.0,13.0,44,0.00,,,0.00,Wunderground v.1.15,2013-09-10 06:00:00,
2013-09-10 01:10:00,80.0,56.7,29.75,SSW,194,9.0,9.0,45,0.00,,,0.00,Wunderground v.1.15,2013-09-10 06:10:00,
2013-09-10 01:20:00,79.6,56.4,29.75,SSW,208,8.0,8.0,45,0.00,,,0.00,Wunderground v.1.15,2013-09-10 06:20:00,
2013-09-10 01:30:00,79.0,56.5,29.75,South,181,7.0,7.0,46,0.00,,,0.00,Wunderground v.1.15,2013-09-10 06:30:00,
2013-09-10 01:40:00,78.8,56.9,29.75,SSW,197,8.0,8.0,47,0.00,,,0.00,Wunderground v.1.15,2013-09-10 06:40:00,
2013-09-10 01:50:00,78.6,56.7,29.76,SSW,197,8.0,9.0,47,0.00,,,0.00,Wunderground v.1.15,2013-09-10 06:50:00,
2013-09-10 02:00:00,78.0,56.7,29.76,SSE,161,7.0,8.0,48,0.00,,,0.00,Wunderground v.1.15,2013-09-10 07:00:00,
2013-09-10 02:10:00,77.6,56.9,29.76,South,181,7.0,7.0,49,0.00,,,0.00,Wunderground v.1.15,2013-09-10 07:10:00,
2013-09-10 02:20:00,77.5,56.8,29.76,South,188,7.0,7.0,49,0.00,,,0.00,Wunderground v.1.15,2013-09-10 07:20:00,
2013-09-10 02:30:00,77.2,56.6,29.76,SSE,158,6.0,7.0,49,0.00,,,0.00,Wunderground v.1.15,2013-09-10 07:30:00,
2013-09-10 02:40:00,77.1,57.0,29.76,South,176,6.0,6.0,50,0.00,,,0.00,Wunderground v.1.15,2013-09-10 07:40:00,
2013-09-10 02:50:00,77.1,57.0,29.76,South,190,7.0,7.0,50,0.00,,,0.00,Wunderground v.1.15,2013-09-10 07:50:00,
2013-09-10 03:00:00,77.2,57.1,29.76,South,177,7.0,8.0,50,0.00,,,0.00,Wunderground v.1.15,2013-09-10 08:00:00,
2013-09-10 03:10:00,77.0,57.5,29.77,South,176,6.0,6.0,51,0.00,,,0.00,Wunderground v.1.15,2013-09-10 08:10:00,
2013-09-10 03:20:00,76.7,57.2,29.77,South,187,4.0,6.0,51,0.00,,,0.00,Wunderground v.1.15,2013-09-10 08:20:00,
2013-09-10 03:30:00,76.3,57.4,29.77,SSE,149,4.0,4.0,52,0.00,,,0.00,Wunderground v.1.15,2013-09-10 08:30:00,
2013-09-10 03:40:00,76.1,57.7,29.77,SSE,153,4.0,4.0,53,0.00,,,0.00,Wunderground v.1.15,2013-09-10 08:40:00,
2013-09-10 03:50:00,75.9,57.5,29.77,South,169,3.0,3.0,53,0.00,,,0.00,Wunderground v.1.15,2013-09-10 08:50:00,
2013-09-10 04:00:00,75.8,58.0,29.77,SE,146,3.0,3.0,54,0.00,,,0.00,Wunderground v.1.15,2013-09-10 09:00:00,
2013-09-10 04:10:00,75.5,57.7,29.77,SSW,194,2.0,2.0,54,0.00,,,0.00,Wunderground v.1.15,2013-09-10 09:10:00,
2013-09-10 04:20:00,75.6,58.3,29.77,SSE,163,3.0,3.0,55,0.00,,,0.00,Wunderground v.1.15,2013-09-10 09:20:00,
2013-09-10 04:30:00,76.1,58.2,29.77,South,176,4.0,4.0,54,0.00,,,0.00,Wunderground v.1.15,2013-09-10 09:30:00,
2013-09-10 04:40:00,76.8,58.4,29.77,SSW,198,4.0,4.0,53,0.00,,,0.00,Wunderground v.1.15,2013-09-10 09:40:00,
2013-09-10 04:50:00,77.0,58.6,29.77,South,178,4.0,4.0,53,0.00,,,0.00,Wunderground v.1.15,2013-09-10 09:50:00,
2013-09-10 05:00:00,77.0,59.1,29.77,SSE,155,5.0,5.0,54,0.00,,,0.00,Wunderground v.1.15,2013-09-10 10:00:00,
2013-09-10 05:10:00,76.8,58.9,29.77,SW,229,4.0,8.0,54,0.00,,,0.00,Wunderground v.1.15,2013-09-10 10:10:00,
2013-09-10 05:20:00,77.2,59.3,29.77,SW,215,6.0,6.0,54,0.00,,,0.00,Wunderground v.1.15,2013-09-10 10:20:00,
2013-09-10 05:30:00,77.0,59.1,29.77,SSW,195,7.0,7.0,54,0.00,,,0.00,Wunderground v.1.15,2013-09-10 10:30:00,
2013-09-10 05:40:00,76.7,58.8,29.77,South,188,7.0,7.0,54,0.00,,,0.00,Wunderground v.1.15,2013-09-10 10:40:00,
2013-09-10 05:50:00,76.5,59.1,29.78,South,173,7.0,7.0,55,0.00,,,0.00,Wunderground v.1.15,2013-09-10 10:50:00,
2013-09-10 06:00:00,76.0,59.2,29.78,SSE,161,6.0,6.0,56,0.00,,,0.00,Wunderground v.1.15,2013-09-10 11:00:00,
2013-09-10 06:10:00,75.6,59.3,29.78,SSW,197,6.0,6.0,57,0.00,,,0.00,Wunderground v.1.15,2013-09-10 11:10:00,
2013-09-10 06:20:00,75.4,59.1,29.78,SSW,210,6.0,6.0,57,0.00,,,0.00,Wunderground v.1.15,2013-09-10 11:20:00,
2013-09-10 06:30:00,75.3,59.5,29.78,South,172,6.0,8.0,58,0.00,,,0.00,Wunderground v.1.15,2013-09-10 11:30:00,
2013-09-10 06:40:00,75.3,59.5,29.79,SSW,198,6.0,6.0,58,0.00,,,0.00,Wunderground v.1.15,2013-09-10 11:40:00,
2013-09-10 06:50:00,75.4,59.6,29.79,SW,218,6.0,6.0,58,0.00,,,0.00,Wunderground v.1.15,2013-09-10 11:50:00,
2013-09-10 07:10:00,75.5,59.7,29.80,SSW,207,5.0,5.0,58,0.00,,,0.00,Wunderground v.1.15,2013-09-10 12:10:00,
2013-09-10 07:20:00,75.4,59.6,29.81,SSE,160,5.0,6.0,58,0.00,,,0.00,Wunderground v.1.15,2013-09-10 12:20:00,
2013-09-10 07:30:00,75.4,60.1,29.80,South,184,8.0,8.0,59,0.00,,,0.00,Wunderground v.1.15,2013-09-10 12:30:00,
2013-09-10 07:40:00,75.1,59.8,29.81,South,191,8.0,10.0,59,0.00,,,0.00,Wunderground v.1.15,2013-09-10 12:40:00,
2013-09-10 07:50:00,75.1,60.3,29.81,SW,214,7.0,7.0,60,0.00,,,0.00,Wunderground v.1.15,2013-09-10 12:50:00,
2013-09-10 08:00:00,75.3,60.0,29.81,SSW,194,6.0,6.0,59,0.00,,,0.00,Wunderground v.1.15,2013-09-10 13:00:00,
2013-09-10 08:20:00,76.1,60.7,29.82,SW,233,4.0,5.0,59,0.00,,,0.00,Wunderground v.1.15,2013-09-10 13:20:00,
2013-09-10 08:30:00,75.9,60.5,29.82,SW,229,5.0,5.0,59,0.00,,,0.00,Wunderground v.1.15,2013-09-10 13:30:00,
2013-09-10 08:40:00,75.9,61.0,29.81,SSE,153,5.0,5.0,60,0.00,,,0.00,Wunderground v.1.15,2013-09-10 13:40:00,
2013-09-10 08:50:00,77.3,61.4,29.82,SSW,205,6.0,6.0,58,0.00,,,0.00,Wunderground v.1.15,2013-09-10 13:50:00,
2013-09-10 09:00:00,78.7,62.7,29.82,SSE,166,6.0,6.0,58,0.00,,,0.00,Wunderground v.1.15,2013-09-10 14:00:00,
2013-09-10 09:10:00,80.2,62.0,29.82,SSW,210,7.0,8.0,54,0.00,,,0.00,Wunderground v.1.15,2013-09-10 14:10:00,
2013-09-10 09:20:00,81.1,62.3,29.82,SW,217,8.0,8.0,53,0.00,,,0.00,Wunderground v.1.15,2013-09-10 14:20:00,
2013-09-10 09:30:00,82.0,63.2,29.83,WSW,243,8.0,8.0,53,0.00,,,0.00,Wunderground v.1.15,2013-09-10 14:30:00,
2013-09-10 09:40:00,82.6,63.2,29.83,SSW,203,7.0,7.0,52,0.00,,,0.00,Wunderground v.1.15,2013-09-10 14:40:00,
2013-09-10 09:50:00,83.7,63.1,29.84,South,190,6.0,10.0,50,0.00,,,0.00,Wunderground v.1.15,2013-09-10 14:50:00,
2013-09-10 10:00:00,84.9,63.6,29.83,SW,219,6.0,6.0,49,0.00,,,0.00,Wunderground v.1.15,2013-09-10 15:00:00,
2013-09-10 10:10:00,85.7,63.1,29.83,SSW,210,5.0,7.0,47,0.00,,,0.00,Wunderground v.1.15,2013-09-10 15:10:00,